This is the latest recevied weather packets stored in our database for station/object W2SRH. If no packets are shown the sender has not sent any weather packets the latest 10 day(s).
| Time | Temp. | Humidity | Pressure | Rain* | Wind** | Luminosity | Snow |
|---|---|---|---|---|---|---|---|
| 1778021944 | 26.11° C | 34% | 1000.4 hPa | 0 mm | 1.34 m/s, 260° | - | - |
| 1778021344 | 26.67° C | 33% | 1000.4 hPa | 0 mm | 0.89 m/s, 187° | - | - |
| 1778020745 | 27.22° C | 31% | 1000.2 hPa | 0 mm | 1.34 m/s, 209° | - | - |
| 1778020145 | 27.22° C | 29% | 1000.1 hPa | 0 mm | 1.34 m/s, 221° | - | - |
| 1778019545 | 27.22° C | 29% | 1000.2 hPa | 0 mm | 0.89 m/s, 241° | - | - |
| 1778018944 | 27.78° C | 28% | 1000.1 hPa | 0 mm | 0.45 m/s, 211° | - | - |
| 1778018344 | 27.78° C | 27% | 1000 hPa | 0 mm | 1.34 m/s, 268° | - | - |
| 1778017745 | 27.78° C | 26% | 1000.2 hPa | 0 mm | 2.24 m/s, 242° | - | - |
| 1778017145 | 27.78° C | 26% | 1000.2 hPa | 0 mm | 1.79 m/s, 245° | - | - |
| 1778016546 | 27.78° C | 26% | 1000 hPa | 0 mm | 3.58 m/s, 240° | - | - |
| 1778015945 | 27.78° C | 25% | 1000.1 hPa | 0 mm | 3.13 m/s, 253° | - | - |
| 1778015346 | 28.33° C | 24% | 999.9 hPa | 0 mm | 3.13 m/s, 256° | - | - |
| 1778014745 | 28.33° C | 23% | 999.8 hPa | 0 mm | 1.79 m/s, 220° | - | - |
| 1778014145 | 28.33° C | 23% | 999.8 hPa | 0 mm | 2.24 m/s, 223° | - | - |
| 1778013544 | 28.89° C | 24% | 999.8 hPa | 0 mm | 2.24 m/s, 227° | - | - |
| 1778012945 | 28.33° C | 24% | 999.8 hPa | 0 mm | 2.68 m/s, 251° | - | - |
| 1778012345 | 28.89° C | 24% | 999.9 hPa | 0 mm | 2.68 m/s, 277° | - | - |
| 1778011745 | 28.89° C | 24% | 999.8 hPa | 0 mm | 3.58 m/s, 262° | - | - |
| 1778011145 | 28.33° C | 25% | 999.9 hPa | 0 mm | 1.79 m/s, 257° | - | - |
| 1778010544 | 28.89° C | 26% | 999.9 hPa | 0 mm | 3.13 m/s, 241° | - | - |
| 1778009946 | 28.33° C | 26% | 1000.1 hPa | 0 mm | 3.13 m/s, 281° | - | - |
| 1778009345 | 28.89° C | 29% | 1000.1 hPa | 0 mm | 2.24 m/s, 241° | - | - |
| 1778008744 | 28.33° C | 30% | 1000.3 hPa | 0 mm | 2.24 m/s, 228° | - | - |
| 1778008144 | 27.78° C | 29% | 1000.3 hPa | 0 mm | 2.24 m/s, 220° | - | - |
| 1778007544 | 28.33° C | 29% | 1000.5 hPa | 0 mm | 4.02 m/s, 249° | - | - |
* Rain latest hour (hover to see other rain measurements)
** Current wind speed in m/s (hover to see current wind gust speed)